Terug naar catalogus

STARLINK-2499

ActiefCommunicatieVLEO
NORAD 48377·PAYLOAD·🇺🇸 United States

Gelanceerd May 4, 2021 vanaf Cape Canaveral Space Force Station

Loading…

Volgende Passages (komende 24 uur)

TLE

VersSource: CelesTrak SupGP

Epoch: Sep 15, 2026, 02:03 UTC

1 48377C 21038AA  26258.08590278 -.00009712  00000+0 -31238-3 0  2583
2 48377  53.1585 186.4548 0001401  78.7438 341.4510 15.31700552    15

Volg STARLINK-2499 in realtime met AllMySat

Download on the App Store